When you browse on this site, cookies collect data to enhance your experience and personalize the content and advertising you see.
Visit our Privacy Policy to learn more. By continuing to use the site, you agree to this use of cookies and data.
  • In Netherlands
  • List of Countries
  • For 7 days
  • Water Temperature
  • Satellite Maps
  • Weather Map
  • Weather Widgets
  • user-avatar
    Login

    Hourly Weather Mayguba

    Today, 21 February, Thursday

    Time Temperature Precipitation Wind Pressure Humidity
    00:00 -15°C° 0.1 mm 8 mps 741 mmHg 82%
    01:00 -14°C° 0.1 mm 7 mps 743 mmHg 82%
    02:00 -14°C° 0 mm 6 mps 743 mmHg 82%
    03:00 -14°C° 0.1 mm 6 mps 744 mmHg 83%
    04:00 -14°C° 0.1 mm 6 mps 745 mmHg 83%
    05:00 -14°C° 0.1 mm 7 mps 746 mmHg 84%
    06:00 -15°C° 0 mm 6 mps 747 mmHg 85%
    07:00 -16°C° 0 mm 6 mps 748 mmHg 86%
    08:00 -15°C° 0 mm 5 mps 749 mmHg 88%
    09:00 -15°C° 0 mm 5 mps 750 mmHg 87%
    10:00 -14°C° 0 mm 5 mps 751 mmHg 87%
    11:00 -14°C° 0 mm 5 mps 751 mmHg 87%
    12:00 -14°C° 0 mm 5 mps 752 mmHg 86%
    13:00 -13°C° 0 mm 5 mps 753 mmHg 86%
    14:00 -13°C° 0 mm 5 mps 754 mmHg 85%
    15:00 -14°C° 0 mm 4 mps 754 mmHg 87%
    16:00 -14°C° 0 mm 4 mps 755 mmHg 89%
    17:00 -15°C° 0 mm 4 mps 756 mmHg 90%
    18:00 -16°C° 0 mm 4 mps 756 mmHg 91%
    19:00 -16°C° 0 mm 4 mps 757 mmHg 92%
    20:00 -17°C° 0 mm 4 mps 758 mmHg 93%
    21:00 -16°C° 0 mm 3 mps 758 mmHg 93%
    22:00 -16°C° 0 mm 3 mps 759 mmHg 93%
    23:00 -17°C° 0 mm 3 mps 759 mmHg 93%

    Tomorrow, 22 February, Friday

    Time Temperature Precipitation Wind Pressure Humidity
    00:00 -17°C° 0 mm 3 mps 760 mmHg 92%
    01:00 -17°C° 0 mm 3 mps 761 mmHg 90%
    02:00 -17°C° 0 mm 3 mps 761 mmHg 89%
    03:00 -18°C° 0 mm 3 mps 762 mmHg 89%
    04:00 -18°C° 0 mm 3 mps 762 mmHg 88%
    05:00 -18°C° 0 mm 3 mps 763 mmHg 88%
    06:00 -19°C° 0 mm 3 mps 763 mmHg 88%
    07:00 -19°C° 0 mm 3 mps 764 mmHg 87%
    08:00 -19°C° 0 mm 3 mps 764 mmHg 87%
    09:00 -18°C° 0 mm 3 mps 765 mmHg 85%
    10:00 -16°C° 0 mm 3 mps 765 mmHg 83%
    11:00 -15°C° 0 mm 3 mps 765 mmHg 82%
    12:00 -14°C° 0 mm 3 mps 765 mmHg 82%
    13:00 -14°C° 0 mm 3 mps 765 mmHg 83%
    14:00 -13°C° 0 mm 3 mps 765 mmHg 84%
    15:00 -14°C° 0 mm 3 mps 765 mmHg 85%
    16:00 -14°C° 0 mm 2 mps 765 mmHg 87%
    17:00 -15°C° 0 mm 2 mps 765 mmHg 89%
    18:00 -15°C° 0 mm 2 mps 765 mmHg 88%
    19:00 -15°C° 0 mm 2 mps 765 mmHg 87%
    20:00 -16°C° 0 mm 2 mps 764 mmHg 86%
    21:00 -16°C° 0 mm 3 mps 764 mmHg 84%
    22:00 -16°C° 0 mm 3 mps 763 mmHg 81%
    23:00 -16°C° 0 mm 4 mps 762 mmHg 78%

    Day after tomorrow, 23 February, Saturday

    Time Temperature Precipitation Wind Pressure Humidity
    00:00 -15°C° 0 mm 4 mps 761 mmHg 77%
    01:00 -14°C° 0 mm 5 mps 760 mmHg 75%
    02:00 -13°C° 0 mm 5 mps 759 mmHg 73%
    03:00 -14°C° 0.5 mm 6 mps 758 mmHg 80%
    04:00 -12°C° 0.5 mm 6 mps 757 mmHg 86%
    05:00 -12°C° 0.5 mm 6 mps 755 mmHg 92%
    06:00 -11°C° 0.8 mm 6 mps 755 mmHg 92%
    07:00 -10°C° 0.8 mm 6 mps 754 mmHg 91%
    08:00 -9°C° 0.8 mm 6 mps 753 mmHg 91%
    09:00 -6°C° 0 mm 5 mps 753 mmHg 92%
    10:00 -4°C° 0 mm 5 mps 752 mmHg 94%
    11:00 -1°C° 0 mm 4 mps 751 mmHg 95%
    12:00 0°C° 0.1 mm 4 mps 751 mmHg 97%
    13:00 0°C° 0.1 mm 5 mps 751 mmHg 98%
    14:00 0°C° 0.1 mm 5 mps 751 mmHg 99%
    15:00 0°C° 0 mm 4 mps 751 mmHg 98%
    16:00 0°C° 0 mm 4 mps 751 mmHg 97%
    17:00 0°C° 0 mm 4 mps 751 mmHg 96%
    18:00 0°C° 0 mm 4 mps 751 mmHg 96%
    19:00 0°C° 0 mm 4 mps 751 mmHg 96%
    20:00 +1°C° 0 mm 3 mps 752 mmHg 95%
    21:00 0°C° 0 mm 3 mps 752 mmHg 94%
    22:00 -1°C° 0 mm 4 mps 752 mmHg 93%
    23:00 -2°C° 0 mm 4 mps 752 mmHg 92%

    24 February, Sunday

    Time Temperature Precipitation Wind Pressure Humidity
    00:00 -1°C° 0 mm 3 mps 752 mmHg 92%
    01:00 -1°C° 0 mm 3 mps 753 mmHg 92%
    02:00 -1°C° 0 mm 3 mps 753 mmHg 92%
    03:00 -2°C° 0 mm 3 mps 753 mmHg 92%
    04:00 -2°C° 0 mm 3 mps 753 mmHg 92%
    05:00 -2°C° 0 mm 3 mps 753 mmHg 92%
    06:00 -4°C° 0 mm 3 mps 754 mmHg 93%
    07:00 -5°C° 0 mm 3 mps 754 mmHg 93%
    08:00 -4°C° 0 mm 2 mps 754 mmHg 94%
    09:00 -3°C° 0 mm 2 mps 754 mmHg 94%
    10:00 -2°C° 0 mm 3 mps 753 mmHg 94%
    11:00 0°C° 0 mm 3 mps 753 mmHg 94%
    12:00 0°C° 0 mm 3 mps 752 mmHg 95%
    13:00 0°C° 0 mm 3 mps 752 mmHg 96%
    14:00 0°C° 0 mm 3 mps 751 mmHg 96%
    15:00 -1°C° 0.5 mm 4 mps 750 mmHg 96%
    16:00 -1°C° 0.5 mm 4 mps 749 mmHg 96%
    17:00 -1°C° 0.5 mm 5 mps 748 mmHg 96%
    18:00 0°C° 1.1 mm 5 mps 747 mmHg 95%
    19:00 0°C° 1.1 mm 5 mps 746 mmHg 95%
    20:00 0°C° 1.1 mm 5 mps 745 mmHg 95%
    21:00 0°C° 0.1 mm 5 mps 745 mmHg 93%
    22:00 -1°C° 0.1 mm 6 mps 745 mmHg 91%
    23:00 -1°C° 0.1 mm 7 mps 744 mmHg 89%

    25 February, Monday

    Time Temperature Precipitation Wind Pressure Humidity
    00:00 -1°C° 0 mm 7 mps 745 mmHg 86%
    01:00 -2°C° 0 mm 7 mps 745 mmHg 83%
    02:00 -3°C° 0 mm 7 mps 746 mmHg 80%
    03:00 -3°C° 0 mm 7 mps 746 mmHg 80%
    04:00 -4°C° 0 mm 6 mps 746 mmHg 80%
    05:00 -4°C° 0 mm 6 mps 746 mmHg 80%
    06:00 -4°C° 0 mm 6 mps 746 mmHg 81%
    07:00 -4°C° 0 mm 6 mps 746 mmHg 81%
    08:00 -3°C° 0 mm 6 mps 745 mmHg 82%
    09:00 -3°C° 0.1 mm 6 mps 745 mmHg 81%
    10:00 -3°C° 0.1 mm 6 mps 745 mmHg 80%
    11:00 -2°C° 0.1 mm 6 mps 744 mmHg 79%
    12:00 -2°C° 0.3 mm 7 mps 745 mmHg 80%
    13:00 -2°C° 0.3 mm 7 mps 745 mmHg 81%
    14:00 -2°C° 0.3 mm 8 mps 745 mmHg 82%
    15:00 -2°C° 0.2 mm 7 mps 746 mmHg 83%
    16:00 -2°C° 0.2 mm 6 mps 747 mmHg 84%
    17:00 -2°C° 0.2 mm 5 mps 747 mmHg 85%
    18:00 -2°C° 0 mm 5 mps 748 mmHg 85%
    19:00 -2°C° 0 mm 5 mps 748 mmHg 84%
    20:00 -2°C° 0 mm 5 mps 749 mmHg 84%
    21:00 -3°C° 0 mm 4 mps 749 mmHg 86%
    22:00 -4°C° 0 mm 4 mps 749 mmHg 89%
    23:00 -5°C° 0 mm 3 mps 749 mmHg 91%

    26 February, Tuesday

    Time Temperature Precipitation Wind Pressure Humidity
    00:00 -6°C° 0 mm 3 mps 748 mmHg 92%
    01:00 -7°C° 0 mm 3 mps 748 mmHg 93%
    02:00 -7°C° 0 mm 3 mps 748 mmHg 94%
    03:00 -7°C° 0 mm 2 mps 747 mmHg 95%
    04:00 -7°C° 0 mm 2 mps 747 mmHg 96%
    05:00 -8°C° 0 mm 2 mps 747 mmHg 96%
    06:00 -8°C° 0 mm 2 mps 746 mmHg 96%
    07:00 -8°C° 0 mm 2 mps 746 mmHg 96%
    08:00 -8°C° 0 mm 2 mps 746 mmHg 95%
    09:00 -7°C° 0 mm 2 mps 746 mmHg 94%
    10:00 -6°C° 0 mm 2 mps 747 mmHg 93%
    11:00 -5°C° 0 mm 2 mps 747 mmHg 92%
    12:00 -5°C° 0 mm 2 mps 747 mmHg 92%
    13:00 -4°C° 0 mm 2 mps 747 mmHg 92%
    14:00 -4°C° 0 mm 2 mps 748 mmHg 92%
    15:00 -5°C° 0 mm 2 mps 748 mmHg 93%
    16:00 -6°C° 0 mm 2 mps 749 mmHg 94%
    17:00 -7°C° 0 mm 2 mps 749 mmHg 95%
    18:00 -7°C° 0 mm 2 mps 750 mmHg 95%
    19:00 -8°C° 0 mm 2 mps 750 mmHg 95%
    20:00 -7°C° 0 mm 1 mps 751 mmHg 95%
    21:00 -7°C° 0 mm 1 mps 751 mmHg 95%
    22:00 -8°C° 0 mm 2 mps 751 mmHg 95%
    23:00 -8°C° 0 mm 2 mps 751 mmHg 95%
    Show more